Other Public Products
Issued by NWS Charleston, SC

Current Version | Previous Version | Graphics & Text | Print | Product List | Glossary On
Versions: 1 2 3 4 5 6 7 8 9 10 11 12 13 14 15 16 17 18 19 20 21 22 23 24 25 26 27 28 29 30 31 32 33 34 35 36 37 38 39 40 41 42 43 44 45 46 47 48 49 50
876 FPUS82 KCHS 261912 OPUCHS TEST...KCHS/KSAV Gateway Observations...TEST National Weather Service Charleston SC 300 PM EDT WED APR 26 2017 NOTE: "fair" indicates few or no clouds below 12,000 feet with no significant weather and/or obstructions to visibility. SCZ050-WAZ558-NCZ071-TXZ119-213-PAZ071-DCZ001-FLZ074-172-MI076- NYZ176-178-MAZ016-IL014-TNZ027-NJZ106-GAZ044-MD014-262000- ...Gateway Observations for Charleston International... CITY SKY/WX TMP DP RH WIND PRES REMARKS Chas Airport MOSUNNY 81 59 47 SW14 29.82F Seattle MOSUNNY 54 45 71 SW18G29 29.82F Charlotte MOSUNNY 79 62 56 VRB6 29.81F Dallas DFW CLOUDY 59 49 69 NW22G35 29.63R Dallas Love CLOUDY 60 50 69 NW22G30 29.63R Philladelphia CLOUDY 63 56 78 VRB3 29.76F Wash National CLOUDY 68 58 70 W6 29.78S Baltimore CLOUDY 65 58 78 CALM 29.77R Miami MOSUNNY 84 67 56 SE15 29.89F Detroit PTSUNNY 75 59 57 SE17G25 29.58F Newark CLOUDY 60 57 89 N8 29.77S Laguardia CLOUDY 59 55 87 NE10 29.77S J F K CLOUDY 61 57 87 N8 29.78S Boston Logan LGT RAIN 53 53 100 NE7 29.84F VSB 1/4 Ft. Lauderdale MOSUNNY 82 65 56 E14G21 29.89F Chicago O`Hare PTSUNNY 72 56 57 S15G22 29.47S Chicago Midway PTSUNNY 75 57 53 SW14G28 29.48R Houston Bush PTSUNNY 84 71 65 S9G18 29.55F Houston Hobby CLOUDY 81 72 74 S13 29.55F Nashville MOSUNNY 82 54 37 SW9 29.70F Atlanta MOSUNNY 78 57 48 SW7 29.82S $$ GAZ044-118-TXZ119-213-NCZ071-DCZ001-MDZ014-506-PAZ021-071-NJZ106- NYZ176-178-MAZ106-OHZ011-021-055-MIZ076-KYZ091-ILZ014-INZ047- MNZ060-ONZ431-262000- ...Gateway Observations for Savannah International... CITY SKY/WX TMP DP RH WIND PRES REMARKS Savannah Arpt MOSUNNY 84 56 38 S8 29.82F Atlanta MOSUNNY 78 57 48 SW7 29.82S Charlotte MOSUNNY 79 62 56 VRB6 29.81F Dallas DFW CLOUDY 59 49 69 NW22G35 29.63R Houston Bush PTSUNNY 84 71 65 S9G18 29.55F Wash National CLOUDY 68 58 70 W6 29.78S Wash Dulles PTSUNNY 68 57 68 N3 29.78S Baltimore CLOUDY 65 58 78 CALM 29.77R Philadelphia CLOUDY 63 56 78 VRB3 29.76F Newark CLOUDY 60 57 89 N8 29.77S Laguardia CLOUDY 59 55 87 NE10 29.77S J F K CLOUDY 61 57 87 N8 29.78S Boston LGT RAIN 53 53 100 NE7 29.84F VSB 1/4 Pittsburg CLOUDY 74 56 53 SE10 29.73F Akron CLOUDY 76 57 51 S15 29.70F Cleveland PTSUNNY 79 56 45 S15G25 29.66F Cincinnati MOSUNNY 79 62 56 S18G25 29.63F Columbus SUNNY 81 53 37 S20G26 29.65F Detroit PTSUNNY 75 59 57 SE17G25 29.58F Chicago O`Hare PTSUNNY 72 56 57 S15G22 29.47S Minneapolis CLOUDY 39 34 82 N13 29.52S WCI 31 Indianapolis MOSUNNY 83 60 45 S16G24 29.55S Toronto Canada CLOUDY 59 52 77 E9 29.74F $$

USA.gov is the U.S. government's official web portal to all federal, state and local government web resources and services.